Location: Nairn
(57.5833°N, 3.8667°W)
Time: 23:56:17
(UTC+00:00)

Tiros 1 - Pass Details

Date: 27 September 2022
Orbit: 629 x 662 km, 48.4° (Epoch: 09 December)

Event Time Altitude Azimuth Distance (km) Brightness Sun altitude
Exits shadow 02:29:52 13° 125° (SE) 1,858 9.5 -27.3°
Drops below altitude 10° 02:30:48 10° 115° (ESE) 2,057 9.9 -27.2°
Sets 02:33:51 0° 95° (E) 2,962 11.1 -26.9°
